Location: �terpigny
(49.8910°N, 2.9249°E)
Time: 12:52:07
(UTC+00:00)

UWE-3 - Pass Details

Date: 02 July 2022
Orbit: 583 x 677 km, 97.7° (Epoch: 14 August)

Event Time Altitude Azimuth Distance (km) Brightness Sun altitude
Rises 02:31:53 0° 22° (NNE) 2,890 ? -8.9°
Reaches altitude 10° 02:34:18 10° 34° (NE) 1,995 ? -8.7°
Maximum altitude 02:38:05 29° 95° (E) 1,171 ? -8.3°
Drops below altitude 10° 02:41:56 10° 155° (SSE) 2,032 ? -8.0°
Sets 02:44:24 0° 167° (SSE) 2,953 ? -7.7°
